ITY21D LIRF-LIPE

Flight info

Callsign ITY21D
Flight time 0h 33m
Altitude 24000
Route SOVAN DCT AMTEL DCT OSMOX/N0369F180 L12 LOMED
Aircraft A320/M-SDE3FGHIRWY/LB1

Departure

Time 2026-05-04 18:07
Airport Rome–Fiumicino Leonardo da Vinci International Airport (LIRF)

Arrival

Time 2026-05-04 18:41
Airport Bologna Guglielmo Marconi Airport (LIPE)
Time Latitude Longitude Altitude Speed Heading
2026-05-04 17:53 41.79840 12.26512 15 ft 0 kts 70°
2026-05-04 18:03 41.79840 12.26514 15 ft 1 kts 70°
2026-05-04 18:04 41.79846 12.26535 16 ft 1 kts 70°
2026-05-04 18:04 41.79881 12.26566 15 ft 11 kts 349°
2026-05-04 18:04 41.80130 12.26442 15 ft 22 kts 339°
2026-05-04 18:05 41.80267 12.26381 15 ft 19 kts 323°
2026-05-04 18:05 41.80328 12.26237 15 ft 17 kts 293°
2026-05-04 18:05 41.80407 12.26163 15 ft 14 kts
2026-05-04 18:05 41.80506 12.26183 15 ft 16 kts
2026-05-04 18:06 41.80737 12.26122 19 ft 5 kts 262°
2026-05-04 18:06 41.80734 12.26114 19 ft 0 kts 252°
2026-05-04 18:07 41.80658 12.25837 18 ft 71 kts 249°
2026-05-04 18:07 41.80408 12.24932 16 ft 133 kts 250°
2026-05-04 18:07 41.80049 12.23608 297 ft 155 kts 246°
2026-05-04 18:07 41.79675 12.22249 952 ft 156 kts 247°
2026-05-04 18:08 41.79294 12.20882 1616 ft 158 kts 249°
2026-05-04 18:08 41.79216 12.19341 2028 ft 180 kts 279°
2026-05-04 18:08 41.79801 12.17757 2384 ft 203 kts 307°
2026-05-04 18:08 41.80764 12.16255 2829 ft 218 kts 307°
2026-05-04 18:09 41.82742 12.13099 4178 ft 234 kts 318°
2026-05-04 18:09 41.86097 12.11520 5091 ft 278 kts 342°
2026-05-04 18:10 41.87958 12.10694 5885 ft 284 kts 339°
2026-05-04 18:10 41.89823 12.09765 6741 ft 288 kts 338°
2026-05-04 18:10 41.91677 12.08808 7568 ft 290 kts 338°
2026-05-04 18:10 41.93571 12.07830 8432 ft 292 kts 338°
2026-05-04 18:11 41.95482 12.06853 9273 ft 295 kts 338°
2026-05-04 18:11 41.97408 12.05881 10136 ft 297 kts 338°
2026-05-04 18:11 41.99373 12.04896 10657 ft 311 kts 338°
2026-05-04 18:11 42.01473 12.03844 10869 ft 334 kts 338°
2026-05-04 18:12 42.03735 12.02714 11023 ft 357 kts 338°
2026-05-04 18:12 42.06137 12.01521 11151 ft 379 kts 338°
2026-05-04 18:12 42.08674 12.00267 11365 ft 395 kts 338°
2026-05-04 18:12 42.11276 11.98974 11907 ft 401 kts 338°
2026-05-04 18:13 42.13902 11.97667 12544 ft 403 kts 337°
2026-05-04 18:13 42.16542 11.96351 13183 ft 406 kts 337°
2026-05-04 18:13 42.22044 11.94317 14388 ft 413 kts 344°
2026-05-04 18:14 42.24850 11.93446 14929 ft 416 kts 345°
2026-05-04 18:14 42.27695 11.92581 15449 ft 420 kts 345°
2026-05-04 18:14 42.30563 11.91715 15954 ft 423 kts 345°
2026-05-04 18:15 42.36352 11.89955 16924 ft 429 kts 344°
2026-05-04 18:15 42.42197 11.88041 17847 ft 434 kts 340°
2026-05-04 18:15 42.45083 11.86840 18301 ft 436 kts 339°
2026-05-04 18:16 42.47982 11.85559 18691 ft 438 kts 339°
2026-05-04 18:16 42.50877 11.84240 19068 ft 440 kts 338°
2026-05-04 18:16 42.53795 11.82898 19437 ft 442 kts 339°
2026-05-04 18:17 42.59623 11.80248 20143 ft 447 kts 339°
2026-05-04 18:17 42.62586 11.78925 20493 ft 449 kts 339°
2026-05-04 18:17 42.68547 11.76278 21125 ft 453 kts 340°
2026-05-04 18:18 42.71548 11.74944 21443 ft 454 kts 340°
2026-05-04 18:18 42.74560 11.73600 21753 ft 456 kts 340°
2026-05-04 18:18 42.77583 11.72244 22058 ft 458 kts 339°
2026-05-04 18:18 42.80615 11.70881 22366 ft 459 kts 340°
2026-05-04 18:19 42.86707 11.68136 22926 ft 463 kts 340°
2026-05-04 18:19 42.89771 11.66754 23198 ft 464 kts 340°
2026-05-04 18:19 42.92841 11.65367 23469 ft 465 kts 340°
2026-05-04 18:20 42.95923 11.63973 23697 ft 467 kts 340°
2026-05-04 18:20 42.99013 11.62578 23891 ft 469 kts 340°
2026-05-04 18:20 43.02121 11.61175 24070 ft 470 kts 339°
2026-05-04 18:20 43.05230 11.59764 24125 ft 473 kts 339°
2026-05-04 18:21 43.08360 11.58341 24123 ft 475 kts 339°
2026-05-04 18:21 43.11493 11.56916 24132 ft 475 kts 339°
2026-05-04 18:21 43.14635 11.55490 24128 ft 475 kts 339°
2026-05-04 18:21 43.17774 11.54061 24128 ft 475 kts 339°
2026-05-04 18:22 43.20907 11.52631 24126 ft 475 kts 339°
2026-05-04 18:22 43.24044 11.51199 24125 ft 475 kts 339°
2026-05-04 18:22 43.27190 11.49765 24124 ft 475 kts 339°
2026-05-04 18:22 43.30330 11.48335 24130 ft 476 kts 339°
2026-05-04 18:23 43.33472 11.46899 24130 ft 476 kts 339°
2026-05-04 18:23 43.36608 11.45462 24132 ft 476 kts 339°
2026-05-04 18:23 43.39749 11.44022 24130 ft 476 kts 339°
2026-05-04 18:23 43.42886 11.42581 24123 ft 476 kts 339°
2026-05-04 18:24 43.46025 11.41136 24116 ft 476 kts 339°
2026-05-04 18:24 43.49169 11.39687 23903 ft 476 kts 339°
2026-05-04 18:24 43.52260 11.38262 23670 ft 475 kts 339°
2026-05-04 18:24 43.55397 11.36816 23404 ft 474 kts 340°
2026-05-04 18:25 43.58555 11.35362 23123 ft 472 kts 339°
2026-05-04 18:25 43.61674 11.33924 22859 ft 471 kts 339°
2026-05-04 18:25 43.64770 11.32494 22588 ft 469 kts 339°
2026-05-04 18:25 43.67859 11.31063 22326 ft 467 kts 339°
2026-05-04 18:26 43.70933 11.29636 22066 ft 465 kts 339°
2026-05-04 18:26 43.74000 11.28208 21802 ft 464 kts 339°
2026-05-04 18:26 43.77050 11.26790 21549 ft 462 kts 339°
2026-05-04 18:26 43.80097 11.25375 21296 ft 461 kts 339°
2026-05-04 18:27 43.83069 11.23997 20598 ft 456 kts 339°
2026-05-04 18:27 43.86119 11.22581 19737 ft 453 kts 339°
2026-05-04 18:27 43.89060 11.21212 18957 ft 449 kts 339°
2026-05-04 18:27 43.92008 11.19834 18134 ft 447 kts 339°
2026-05-04 18:28 43.94943 11.18460 17327 ft 442 kts 339°
2026-05-04 18:28 43.95922 11.18002 17087 ft 440 kts 339°
2026-05-04 18:28 44.00703 11.15772 15891 ft 431 kts 339°
2026-05-04 18:28 44.03533 11.14446 15189 ft 427 kts 339°
2026-05-04 18:29 44.06340 11.13124 14539 ft 423 kts 339°
2026-05-04 18:29 44.09115 11.11809 13895 ft 419 kts 339°
2026-05-04 18:29 44.11866 11.10505 13214 ft 415 kts 340°
2026-05-04 18:29 44.14592 11.09218 12607 ft 410 kts 340°
2026-05-04 18:30 44.19932 11.06708 11529 ft 397 kts 341°
2026-05-04 18:30 44.22462 11.05520 11406 ft 380 kts 340°
2026-05-04 18:30 44.24914 11.04366 11274 ft 364 kts 341°
2026-05-04 18:31 44.27179 11.03292 11146 ft 350 kts 341°
2026-05-04 18:31 44.29438 11.02220 11017 ft 337 kts 341°
2026-05-04 18:31 44.31625 11.01183 10892 ft 325 kts 341°
2026-05-04 18:31 44.33780 11.00163 10709 ft 338 kts 341°
2026-05-04 18:32 44.36049 10.99087 10543 ft 348 kts 341°
2026-05-04 18:32 44.38347 10.97998 10378 ft 350 kts 341°
2026-05-04 18:32 44.40656 10.96903 10221 ft 350 kts 341°
2026-05-04 18:32 44.42965 10.95806 9930 ft 351 kts 340°
2026-05-04 18:33 44.45294 10.94698 9291 ft 352 kts 341°
2026-05-04 18:33 44.47610 10.93596 9009 ft 338 kts 341°
2026-05-04 18:33 44.49748 10.92577 8868 ft 312 kts 341°
2026-05-04 18:33 44.51746 10.91625 8543 ft 296 kts 340°
2026-05-04 18:34 44.53605 10.90735 8213 ft 281 kts 340°
2026-05-04 18:34 44.55520 10.90108 7442 ft 284 kts 356°
2026-05-04 18:34 44.57481 10.90298 6811 ft 281 kts 14°
2026-05-04 18:34 44.59280 10.91261 6176 ft 276 kts 27°
2026-05-04 18:35 44.60987 10.92467 5524 ft 273 kts 27°
2026-05-04 18:35 44.62665 10.93642 4684 ft 266 kts 28°
2026-05-04 18:35 44.64062 10.95297 3888 ft 255 kts 60°
2026-05-04 18:35 44.64486 10.97644 3609 ft 260 kts 95°
2026-05-04 18:36 44.63915 10.99951 3311 ft 240 kts 118°
2026-05-04 18:36 44.63150 11.01908 3090 ft 219 kts 117°
2026-05-04 18:36 44.62470 11.03767 2870 ft 210 kts 114°
2026-05-04 18:36 44.61856 11.05610 2658 ft 208 kts 115°
2026-05-04 18:37 44.61216 11.07427 2534 ft 208 kts 116°
2026-05-04 18:37 44.60574 11.09239 2523 ft 207 kts 117°
2026-05-04 18:37 44.59934 11.11038 2455 ft 206 kts 118°
2026-05-04 18:37 44.59295 11.12824 2383 ft 199 kts 117°
2026-05-04 18:38 44.58707 11.14479 2178 ft 183 kts 117°
2026-05-04 18:38 44.58170 11.15980 2009 ft 164 kts 118°
2026-05-04 18:38 44.57672 11.17366 1733 ft 154 kts 120°
2026-05-04 18:38 44.57197 11.18683 1546 ft 149 kts 120°
2026-05-04 18:39 44.56735 11.19971 1346 ft 147 kts 119°
2026-05-04 18:39 44.56280 11.21243 1126 ft 145 kts 118°
2026-05-04 18:39 44.55831 11.22505 932 ft 144 kts 119°
2026-05-04 18:39 44.55388 11.23740 740 ft 141 kts 120°
2026-05-04 18:40 44.54950 11.24962 558 ft 140 kts 121°
2026-05-04 18:40 44.54508 11.26180 392 ft 139 kts 119°
2026-05-04 18:40 44.54079 11.27386 203 ft 138 kts 120°
2026-05-04 18:40 44.53664 11.28526 125 ft 116 kts 115°
2026-05-04 18:41 44.53387 11.29297 124 ft 53 kts 117°
2026-05-04 18:41 44.53178 11.29667 127 ft 45 kts 144°
2026-05-04 18:41 44.53049 11.29779 126 ft 11 kts 158°
2026-05-04 18:41 44.53038 11.29730 126 ft 7 kts 290°
2026-05-04 18:42 44.53066 11.29659 125 ft 10 kts 289°
2026-05-04 18:42 44.53107 11.29536 123 ft 20 kts 296°
2026-05-04 18:42 44.53189 11.29304 126 ft 31 kts 297°
2026-05-04 18:42 44.53193 11.29166 127 ft 12 kts 271°
2026-05-04 18:43 44.53232 11.29048 124 ft 9 kts 292°
2026-05-04 18:43 44.53200 11.29007 126 ft 6 kts 207°
2026-05-04 18:43 44.53187 11.28998 125 ft 0 kts 207°